Location: Appleton
(44.2618°N, 88.4157°W)
Time: 16:42:32
(UTC+00:00)

Vanguard 2 - All Passes

Search period start: 27 February 2021 00:00
Search period end: 09 March 2021 00:00
Orbit: 552 x 2938 km, 32.9° (Epoch: 26 February)

Date Brightness Start Highest point End Pass type
(mag) Time Alt. Az. Time Alt. Az. Time Alt. Az.
27 Feb - 08:56:12 10° SSW 09:08:12 29° SE 09:21:52 10° E visible
27 Feb - 11:02:53 10° SW 11:18:36 49° SSE 11:34:32 10° E visible
27 Feb - 13:13:08 10° WSW 13:30:15 56° S 13:44:41 10° ESE daylight
27 Feb - 15:25:33 10° W 15:41:02 42° SSW 15:52:34 10° SE daylight
27 Feb - 17:41:08 10° W 17:49:28 17° SW 17:56:13 10° S daylight
28 Feb - 07:12:36 10° SE 07:16:50 12° SE 07:21:22 10° ESE visible
28 Feb - 09:12:35 10° SSW 09:25:25 35° SSE 09:40:17 10° E visible
28 Feb - 11:20:14 10° WSW 11:36:13 53° SSE 11:52:22 10° E visible
28 Feb - 13:30:53 10° W 13:47:55 54° S 14:02:13 10° ESE daylight
28 Feb - 15:43:40 10° W 15:58:21 36° SSW 16:09:29 10° SSE daylight
28 Feb - 18:01:44 10° WSW 18:06:20 12° SW 18:10:26 10° SSW daylight
01 Mar - 07:25:56 10° SSE 07:33:44 17° SE 07:42:46 10° E visible
01 Mar - 09:29:19 10° SW 09:42:44 40° SSE 09:58:27 10° E visible
01 Mar - 11:37:42 10° WSW 11:53:54 56° S 12:10:07 10° ESE visible
01 Mar - 13:48:42 10° W 14:05:33 51° SSW 14:19:38 10° SE daylight
01 Mar - 16:01:58 10° W 16:15:33 30° SW 16:26:08 10° SSE daylight
02 Mar - 07:41:14 10° S 07:50:42 23° SE 08:02:14 10° E visible
02 Mar - 09:46:19 10° SW 10:00:09 46° SSE 10:16:29 10° E visible
02 Mar - 11:55:17 10° WSW 12:11:36 57° S 12:27:49 10° ESE visible
02 Mar - 14:06:36 10° W 14:23:05 47° SSW 14:36:53 10° SE daylight
02 Mar - 16:20:35 10° W 16:32:38 24° SW 16:42:21 10° S daylight
03 Mar - 07:57:17 10° SSW 08:07:45 29° SE 08:20:59 10° E visible
03 Mar - 10:03:32 10° SW 10:17:40 50° SSE 10:34:24 10° E visible
03 Mar - 12:12:58 10° WSW 12:29:18 56° S 12:45:26 10° ESE daylight
03 Mar - 14:24:36 10° W 14:40:32 42° SSW 14:53:58 10° SE daylight
03 Mar - 16:39:47 10° W 16:49:37 19° SW 16:57:56 10° S daylight
04 Mar - 06:14:33 10° SE 06:17:01 11° SE 06:19:38 10° ESE visible
04 Mar - 08:13:48 10° SSW 08:24:55 34° SSE 08:39:23 10° E visible
04 Mar - 10:20:54 10° WSW 10:35:16 53° SSE 10:52:14 10° E visible
04 Mar - 12:30:42 10° W 12:46:59 54° S 13:02:57 10° ESE daylight
04 Mar - 14:42:42 10° W 14:57:52 36° SSW 15:10:48 10° SSE daylight
04 Mar - 17:00:16 10° WSW 17:06:32 13° SW 17:12:11 10° SSW daylight
05 Mar - 06:27:35 10° SSE 06:33:52 16° SE 06:41:26 10° E visible
05 Mar - 08:30:38 10° SW 08:42:12 40° SSE 08:57:32 10° E visible
05 Mar - 10:38:23 10° WSW 10:52:55 56° S 11:10:01 10° ESE visible
05 Mar - 12:48:31 10° W 13:04:36 51° SSW 13:20:20 10° SE daylight
05 Mar - 15:01:02 10° W 15:15:07 30° SW 15:27:18 10° SSE daylight
06 Mar - 06:42:59 10° S 06:50:47 21° SE 07:00:53 10° E visible
06 Mar - 08:47:42 10° SW 08:59:35 45° SSE 09:15:33 10° E visible
06 Mar - 10:55:58 10° WSW 11:10:37 56° S 11:27:43 10° ESE visible
06 Mar - 13:06:23 10° W 13:22:10 46° SSW 13:37:33 10° SE daylight
06 Mar - 15:19:42 10° W 15:32:15 25° SW 15:43:22 10° S daylight
07 Mar - 06:59:09 10° SSW 07:07:49 27° SE 07:19:36 10° E visible
07 Mar - 09:04:58 10° SW 09:17:05 49° SSE 09:33:29 10° E visible
07 Mar - 11:13:37 10° WSW 11:28:18 55° S 11:45:19 10° ESE visible
07 Mar - 13:24:21 10° W 13:39:40 41° SSW 13:54:32 10° SE daylight
07 Mar - 15:38:59 10° W 15:49:19 19° SW 15:58:43 10° S daylight
08 Mar - 07:15:46 10° SSW 07:24:58 33° SSE 07:37:58 10° E visible
08 Mar - 09:22:21 10° WSW 09:34:39 52° S 09:51:20 10° E visible
08 Mar - 11:31:20 10° W 11:45:59 52° S 12:02:49 10° ESE visible
08 Mar - 13:42:29 10° W 13:57:03 35° SSW 14:11:14 10° SSE daylight
08 Mar - 15:59:41 10° WSW 16:06:19 13° SW 16:12:34 10° SSW daylight
